Location: Newark
(44.3681°N, 100.3364°W)
Time: 07:48:52
(UTC+00:00)

Vanguard 1 - Pass Details

Date: 29 February 2020
Orbit: 649 x 3833 km, 34.2° (Epoch: 05 April)

Event Time Altitude Azimuth Distance (km) Brightness Sun altitude
Rises 12:25:42 0° 227° (SW) 7,484 14.1 -10.4°
Reaches altitude 10° 12:30:43 10° 223° (SW) 6,692 13.9 -9.5°
Maximum altitude 12:52:20 50° 156° (SSE) 4,354 13.6 -5.6°
Drops below altitude 10° 13:10:27 10° 89° (E) 5,742 15.9 -2.4°
Sets 13:14:19 0° 85° (E) 6,408 16.2 -1.7°
